Location: Ar Ranvel
(48.3000°N, 4.8833°W)
Time: 20:33:37
(UTC+00:00)

Meteor 2-10 Rocket - Pass Details

Date: 03 November 2021
Orbit: 733 x 885 km, 81.2° (Epoch: 30 November)

Event Time Altitude Azimuth Distance (km) Brightness Sun altitude
Rises 18:30:27 0° 213° (SSW) 3,313 7.4 -15.9°
Reaches altitude 10° 18:33:02 10° 222° (SW) 2,361 6.7 -16.3°
Maximum altitude 18:37:57 37° 289° (WNW) 1,183 5.0 -17.1°
Drops below altitude 10° 18:42:44 10° 357° (N) 2,294 6.0 -17.9°
Sets 18:45:13 0° 6° (N) 3,207 6.6 -18.3°
